Welcome to the New NWS' Forecast!
Most changes are behind the scenes, but click here for differences you might notice.
Latest weather observations around

Everett Snohomish County (KPAE)

Using English Units (Switch to International System of Units)
Date/ Time (PST) Wind (mph) Vis. (mi) Weather Sky Cond. Temp (°F) Rel. Humidity Wind Chill (°F) Heat Index (°F) Pressure Precip. (in)
Air Dwpt 6 hour Altimeter (inHg) Sea level (inHg) 1 hr 3 hr 6 hr
Max Min
Nov 16 13:53 WNW 10 10 Cloudy OVC005 50 48     93%     30.24 30.24      
Nov 16 12:53 NW 6 10 Cloudy OVC005 50 47     89%     30.24 30.25      
Nov 16 11:56 WNW 7 10 Cloudy BKN003 OVC006 49 48     97% 46   30.24        
Nov 16 11:53 NW 5 10 Cloudy OVC006 49 48     97% 47   30.24 30.25      
Nov 16 11:00 WNW 7 8 Cloudy OVC002 49 49     100% 46   30.26        
Nov 16 10:53 NW 8 2 Fog/Mist OVC002 49 49     100% 45   30.26 30.27      
Nov 16 10:28 WNW 6 2 Clear   48 48     100% 45   30.26        
Nov 16 10:16 NW 3 1 Clear   49 48     97% 48   30.26        
Nov 16 10:06 NW 5 2.5 Clear   48 48     100% 46   30.26        
Nov 16 09:55 NW 5 3 Clear   49 48     97% 47   30.26        
Nov 16 09:53 NW 6 0.75 Clear   49 48     97% 46   30.26 30.26     0
Nov 16 09:30 NW 7 0.75 Fog/Mist VV001 49 49     100% 46   30.25        
Nov 16 09:17 NW 6 0.25 Fog VV001 49 49     100% 46   30.25        
Nov 16 08:53 NW 8 0.25 Fog VV001 49 49     100% 45   30.24 30.24      
Nov 16 07:53 NW 6 0.25 Fog VV001 49 49     100% 46   30.23 30.23      
Nov 16 07:00 WNW 5 0.25 Fog VV001 49 49     100% 47   30.22        
Nov 16 06:53 NW 5 0.25 Fog VV001 49 49     100% 47   30.22 30.22   0  
Nov 16 06:46 NW 6 0.25 Fog VV001 49 49     100% 46   30.22        
Nov 16 06:37 NW 5 0.25 Fog VV001 49 49     100% 47   30.22        
Nov 16 06:27 NW 5 0.25 Fog VV001 49 49     100% 47   30.22        
Nov 16 06:05 NW 3 0.25 Fog VV001 50 49     96%     30.21        
Nov 16 05:53 WNW 3 0.25 Fog VV002 50 49     96%     30.21 30.22 0    
Nov 16 05:46 Calm 0.25 Fog VV002 50 49     96%     30.21   0    
Nov 16 05:39 Calm 0.5 Fog VV002 50 49     96%     30.21   0    
Nov 16 05:19 Calm 0.75 Fog/Mist VV002 50 49     96%     30.21   0    
Nov 16 05:06 Calm 0.5 Fog VV002 50 49     96%     30.21   0    
Nov 16 04:53 Calm 0.25 Light Rain and Fog VV001 50 50     100%     30.21 30.21 0    
Nov 16 04:03 Calm 0.25 Clear   50 50     100%     30.2        
Nov 16 03:53 Calm 0.5 Clear   50 50     100%     30.2 30.2     0
Nov 16 03:48 SSE 3 0.75 Clear   50 50     100%     30.2        
Nov 16 03:36 Calm 1.75 Fog/Mist OVC002 50 50     100%     30.2        
Nov 16 02:53 SSW 3 5 Fog/Mist OVC004 50 49     96%     30.2 30.2 0    
Nov 16 02:49 S 3 5 Fog/Mist BKN004 OVC009 50 50     100%     30.2   0    
Nov 16 02:15 SW 3 3 Light Rain and Fog/Mist BKN007 OVC014 50 49     96%     30.2   0    
Nov 16 01:53 SE 10 4 Light Rain and Fog/Mist FEW005 OVC014 50 49     96%     30.19 30.19 0    
Nov 16 01:17 SSE 8 6 Fog/Mist FEW008 BKN012 OVC020 50 49     96%     30.19   0    
Nov 16 00:53 SE 7 5 Light Rain and Fog/Mist SCT016 OVC024 50 48     93%     30.19 30.19 0 0  
Nov 16 00:30 SSE 8 8 Cloudy FEW008 BKN017 OVC022 50 48     93%     30.19   0    
Nov 16 00:10 S 5 9 Cloudy BKN015 OVC019 50 49     96%     30.19   0    
Nov 15 23:53 SSE 7 8 Light Rain BKN011 OVC021 50 48     93%     30.19 30.19 0    
Nov 15 23:48 SE 6 8 Light Rain BKN011 OVC021 50 48     94%     30.19   0    
Nov 15 23:35 SE 7 8 Light Rain SCT011 OVC020 50 48     93%     30.19   0    
Nov 15 23:08 SE 7 7 Cloudy FEW008 BKN013 OVC024 50 48     93%     30.19   0    
Nov 15 22:53 SE 8 5 Fog/Mist BKN014 OVC026 50 48     93%     30.19 30.19 0    
Nov 15 22:46 SE 7 4 Light Rain and Fog/Mist BKN014 OVC027 50 48     93%     30.19   0    
Nov 15 21:53 SSE 7 10 Cloudy OVC015 51 47     86%     30.2 30.21 0   0
Nov 15 21:08 S 13 10 Cloudy BKN017 OVC043 51 47     86%     30.2        
Nov 15 20:53 SSE 11 10 Cloudy FEW017 OVC042 51 46     83%     30.19 30.19 0    
Nov 15 19:53 SSE 13 10 Cloudy BKN046 OVC070 52 46     80%     30.19 30.19      
Nov 15 18:53 SE 7 10 Cloudy FEW020 OVC048 52 45     77%     30.21 30.21      
Nov 15 17:53 SE 9 10 Cloudy SCT025 OVC060 52 45     77%     30.22 30.22      
Nov 15 16:53 SSE 8 10 Cloudy SCT025 OVC060 52 45     77%     30.24 30.24      
Nov 15 15:53 SE 8 10 Mostly Cloudy SCT021 BKN060 53 45     74%     30.25 30.25      
Nov 15 14:53 SSE 8 10 Cloudy BKN021 OVC065 53 46     77%     30.26 30.26      
Nov 15 13:53 SSE 7 10 Cloudy BKN021 OVC065 53 45     74%     30.27 30.27      
Nov 15 12:53 SSW 5 10 Cloudy BKN013 OVC023 52 46     80%     30.29 30.29      
Nov 15 12:17 SSE 10 10 Cloudy BKN017 OVC023 53 46     77%     30.3        
Nov 15 12:08 SE 10 10 Cloudy FEW017 SCT025 OVC075 53 46     77%     30.3        
Nov 15 11:53 SSE 14 10 Cloudy BKN017 OVC023 52 46     80%     30.3 30.31      
Nov 15 11:00 SE 10 10 Cloudy OVC013 51 47     86%     30.32        
Nov 15 10:53 SE 9 10 Cloudy OVC008 51 47     86%     30.32 30.32      
Nov 15 09:53 SE 7 10 Cloudy BKN008 OVC012 50 47     89%     30.33 30.34      
Nov 15 09:00 SE 6 7 Cloudy OVC005 49 47     93% 46   30.34        
Nov 15 08:53 ESE 6 3 Fog/Mist OVC004 49 47     93% 46   30.34 30.35      
Nov 15 07:53 SE 5 3 Fog/Mist OVC004 49 47     93% 47   30.35 30.35      
Nov 15 06:53 SSE 7 5 Fog/Mist OVC003 49 48     97% 46   30.35 30.35      
Nov 15 06:25 SE 9 6 Fog/Mist BKN003 OVC008 49 47     93% 45   30.35        
Nov 15 06:04 SE 6 7 Cloudy BKN006 OVC012 49 47     93% 46   30.36        
Nov 15 05:53 SE 6 8 Cloudy OVC010 49 47     93% 46   30.36 30.37      
Nov 15 05:43 ESE 6 8 Cloudy OVC007 49 48     97% 46   30.36        
Nov 15 05:32 SE 6 6 Fog/Mist BKN004 OVC009 49 48     97% 46   30.36        
Nov 15 04:53 SE 5 8 Cloudy OVC005 49 47     93% 47   30.36 30.37      
Nov 15 03:53 S 3 7 Cloudy OVC005 49 48     97% 48   30.37 30.38      
Nov 15 02:53 SSE 7 7 Cloudy OVC006 49 47     93% 46   30.37 30.38      
Nov 15 01:53 S 3 7 Cloudy OVC009 49 48     97% 48   30.38 30.38      
Nov 15 01:40 SSE 5 8 Cloudy BKN008 OVC021 49 48     97% 47   30.37        
Nov 15 01:08 SSE 6 9 Cloudy SCT008 BKN012 OVC021 50 48     93%     30.38        
Nov 15 00:53 SE 6 10 Cloudy FEW009 OVC021 50 48     93%     30.38 30.38      
Nov 15 00:46 SE 5 10 Cloudy FEW009 BKN019 OVC024 50 48     93%     30.38        
Nov 14 23:53 SE 6 10 Mostly Cloudy BKN021 50 48     93%     30.37 30.38      
Nov 14 23:48 SE 5 10 Mostly Cloudy BKN022 50 48     94%     30.38        
Nov 14 23:34 SE 6 9 Partly Cloudy SCT024 47 46     97% 44   30.37        
Nov 14 23:00 SSW 5 8 Mostly Cloudy BKN024 49 47     93% 47   30.38        
Nov 14 22:53 S 6 8 Partly Cloudy SCT024 47 46     97% 44   30.38 30.38      
Nov 14 21:53 SSE 6 8 Partly Cloudy SCT026 48 46     93% 45   30.37 30.37      
Nov 14 20:53 SE 6 9 Cloudy FEW010 OVC021 51 49     92%     30.36 30.36      
Nov 14 19:53 SE 6 8 Cloudy OVC020 51 49     92%     30.35 30.35      
Nov 14 19:02 Calm 9 Cloudy BKN010 OVC022 52 49     89%     30.35        
Nov 14 18:53 ESE 3 10 Cloudy SCT011 OVC022 52 49     89%     30.35 30.35      
Nov 14 18:33 ESE 5 10 Cloudy FEW009 OVC021 51 49     92%     30.34        
Nov 14 18:03 SE 5 9 Mostly Cloudy BKN021 BKN027 50 48     93%     30.34        
Nov 14 17:53 S 3 9 Mostly Cloudy SCT023 BKN033 49 47     93% 48   30.33 30.34      
Nov 14 16:53 Calm 10 Cloudy FEW014 OVC032 51 48     89%     30.33 30.33      
Nov 14 16:02 SSE 5 10 Cloudy SCT010 OVC032 52 49     89%     30.34        
Nov 14 15:53 SSE 3 10 Cloudy BKN010 OVC032 52 49     89%     30.34 30.34     0
Nov 14 14:53 SSE 9 9 Cloudy SCT008 OVC029 52 49     89%     30.33 30.33      
Nov 14 14:37 SE 6 8 Cloudy SCT008 OVC029 51 49     92%     30.32        
Nov 14 13:53 SSE 8 8 Cloudy BKN007 OVC029 51 49     92%     30.32 30.32 0    
Nov 14 13:38 SSE 8 7 Cloudy BKN007 OVC029 50 49     96%     30.32   0    
Nov 14 13:15 SSE 8 6 Fog/Mist SCT007 OVC029 50 48     93%     30.31   0    
Nov 14 12:53 SSE 8 7 Light Rain OVC006 50 48     93%     30.31 30.32 0 0  
Nov 14 11:53 SSE 10 7 Cloudy OVC006 49 47     93% 45   30.3 30.31 0    
Nov 14 11:16   5 Fog/Mist OVC008 49 46     90%     30.29   0    
Nov 14 11:09   6 Light Rain and Fog/Mist OVC010 49 46     90%     30.29   0    
Nov 14 10:11   9 Cloudy BKN009 OVC019 50 45     83%     30.26        
Nov 14 09:53 S 16 9 Cloudy BKN014 OVC021 50 45     83%     30.25 30.25     0
Nov 14 09:35   9 Cloudy BKN014 OVC024 49 44     83%     30.25        
Nov 14 09:20   9 Cloudy SCT014 BKN025 OVC090 49 44     83%     30.24        
Nov 14 08:53 SSE 15 9 Mostly Cloudy BKN090 BKN100 49 43     80% 43   30.19 30.19 0    
Nov 14 07:53   9 Cloudy FEW060 OVC080 47 41     80%     30.19 30.2      
Nov 14 06:53   10 Partly Cloudy FEW070 SCT100 49 40     71%     30.2 30.21      
Nov 14 05:53   10 Clear CLR 50 37     61%     30.2 30.2      
Nov 14 04:53   10 Mostly Cloudy BKN040 50 34     54%     30.22 30.22      
Nov 14 03:53 SE 17 10 Cloudy OVC041 49 33     54% 43   30.23 30.23     0
Nov 14 02:53 ESE 14 10 Cloudy OVC040 51 32     48%     30.25 30.25      
Nov 14 01:53 SE 14 10 Cloudy BKN043 OVC065 50 33     52%     30.26 30.26 0    
Nov 14 00:53 SE 14 10 Cloudy FEW037 BKN080 OVC090 49 34     56% 44   30.26 30.26   0  
Nov 13 23:53   10 Cloudy BKN044 BKN065 OVC080 50 33     52%     30.27 30.28 0    
Nov 13 22:53 SE 18 10 Light Rain OVC055 50 33     52%     30.28 30.29 0    
Nov 13 21:53   10 Cloudy OVC080 50 31     48%     30.27 30.28      
Nov 13 20:53 SE 14 10 Cloudy OVC095 51 31     46%     30.28 30.28      
Nov 13 19:53 ESE 17 10 Cloudy FEW045 BKN065 OVC090 51 31     46%     30.27 30.28      
Nov 13 18:53 SE 14 10 Cloudy FEW050 BKN060 OVC085 52 30     43%     30.28 30.29      
Nov 13 17:53 SE 11 10 Cloudy OVC090 51 32     48%     30.28 30.29      
Nov 13 16:53 SE 15 10 Cloudy OVC100 53 29     39%     30.3 30.3      
Nov 13 15:53 SE 11 10 Mostly Cloudy BKN110 54 33     45%     30.3 30.31      
Nov 13 14:53 SE 15 10 Clear CLR 54 36     50%     30.31 30.32      
Nov 13 13:53 ESE 14 10 Clear CLR 54 37     53%     30.32 30.33      
Nov 13 12:53 ESE 11 10 Clear CLR 52 35     52%     30.33 30.34      
Nov 13 11:53 SE 10 10 Clear CLR 52 34     50%     30.35 30.36      
Nov 13 10:53 SE 9 10 Clear CLR 50 32     50%     30.36 30.36      
Nov 13 09:53 ESE 15 10 Clear CLR 49 28     44% 43   30.35 30.36      
Nov 13 08:53 SE 15 10 Clear CLR 48 27     44% 42   30.36 30.36      
Nov 13 07:53 SE 9 10 Clear CLR 45 26     47% 40   30.35 30.35      
Nov 13 06:53 ESE 11 10 Clear CLR 46 25     43% 41   30.33 30.34      
Nov 13 05:53 SW 5 10 Clear CLR 42 26     53% 39   30.35 30.35      
Nov 13 04:53 ESE 7 10 Clear CLR 47 25     42% 44   30.32 30.33      
Nov 13 03:53 E 5 10 Clear CLR 45 25     45% 43   30.33 30.34      
Nov 13 02:53 5 10 Clear CLR 47 24     40% 45   30.33 30.33      
Nov 13 01:53 3 10 Clear CLR 46 25     43% 45   30.34 30.34      
Nov 13 00:53 E 8 10 Clear CLR 47 25     42% 43   30.35 30.35      
Nov 12 23:53 6 10 Clear CLR 48 25     40% 45   30.35 30.35      
Nov 12 22:53 3 10 Clear CLR 48 26     42% 47   30.36 30.37      
Nov 12 21:53 SE 6 10 Clear CLR 47 27     46% 44   30.37 30.38      
Nov 12 20:53 ESE 6 10 Clear CLR 49 26     41% 46   30.35 30.35      
Nov 12 19:53 ESE 7 10 Clear CLR 50 25     37%     30.36 30.36      
Nov 12 18:53 5 10 Clear CLR 51 24     35%     30.36 30.37      
Nov 12 17:53 E 6 10 Clear CLR 51 28     41%     30.36 30.37      
Nov 12 16:53 E 5 10 Clear CLR 53 30     41%     30.36 30.37      
Nov 12 15:53 Calm 10 Clear CLR 55 29     37%     30.37 30.37      
Nov 12 14:53 E 5 10 Clear CLR 55 30     38%     30.36 30.37      
Nov 12 13:53 E 7 10 Clear CLR 56        %     30.38 30.39      
Nov 12 12:53 3 10 Clear CLR 54 27     35%     30.39 30.4      
Nov 12 11:53 E 3 10 Clear CLR 53 27     36%     30.4 30.41      
Nov 12 10:53 E 5 10 Clear CLR 50        %     30.42 30.42      
Nov 12 09:53 E 6 10 Clear CLR 47 28     48% 44   30.42 30.42      
Nov 12 08:53 ENE 3 10 Clear CLR 47 29     49% 46   30.43 30.44      
Nov 12 07:53 ENE 5 10 Clear CLR 43 27     53% 40   30.42 30.44      
Nov 12 06:53 Calm 10 Clear CLR 40 28     62%     30.42 30.43      
Notice The following observation data may not be complete
Nov 12 05:53 ENE 8 10 Clear CLR   27      %     30.42 30.43      
Nov 12 04:53 Calm 10 Clear CLR 42 29     59%     30.43 30.44      
Nov 12 03:53 3 10 Clear CLR 41 29     62% 39   30.43 30.44      
Notice The following observation data may not be complete
Nov 12 02:53 ENE 8 10 Clear CLR   30      %     30.43 30.44      
Nov 12 01:53 E 6 10 Clear CLR 40 32     73% 36   30.44 30.45      
Nov 12 00:53 Calm 10 Clear CLR 41 33     73%     30.45 30.46      
Nov 11 23:53 ENE 6 10 Clear CLR 39 35     86% 35   30.47 30.48      
Nov 11 22:53 N 3 10 Clear CLR 36 35     96% 33   30.46 30.48      
Nov 11 21:53 Calm 10 Clear CLR 39 37     93%     30.46 30.48      
Nov 11 20:53 N 3 10 Clear CLR 39 38     96% 37   30.47 30.48      
Nov 11 19:53 Calm 10 Clear CLR 40 39     97%     30.45 30.47      
Nov 11 18:53 N 7 10 Clear CLR 42 39     89% 38   30.45 30.47      
Nov 11 17:53 NNW 5 10 Clear CLR 41 37     86% 38   30.44 30.45      
Nov 11 16:53 NNW 6 10 Clear CLR 42 38     85% 38   30.44 30.46      
Nov 11 15:53 NW 5 10 Clear CLR 44 38     79% 41   30.45 30.46      
Nov 11 14:53 NNW 6 10 Clear CLR 44 38     79% 41   30.45 30.46      
Nov 11 13:53 NW 7 10 Clear CLR 44 38     79% 40   30.45 30.47      
Nov 11 12:53 NNW 6 10 Clear CLR 44 38     79% 41   30.46 30.47      
Nov 11 11:53 NNW 6 10 Clear CLR 43 35     73% 39   30.46 30.48      
Nov 11 10:53 NNW 5 10 Clear CLR 42 36     79% 39   30.47 30.48      
Nov 11 09:53 NNW 6 10 Clear CLR 38 37     97% 33   30.47 30.48      
Nov 11 09:22 NNW 7 10 Mostly Clear FEW001 37 36     96% 32   30.46        
Nov 11 09:18 N 6 0.5 Fog VV001 37 37     100% 32   30.46        
Nov 11 08:53 N 8 0.25 Fog VV001 36 35     96% 30   30.47 30.48      
Nov 11 08:43 NNW 6 0.25 Fog VV001 36 35     96% 31   30.47        
Nov 11 08:07 N 3 10 Clear CLR 35 34     96% 32   30.45        
Nov 11 07:53 N 5 10 Clear CLR 35 33     92% 31   30.46 30.47      
Nov 11 06:53 Calm 10 Clear CLR 34 34     100%     30.45 30.46      
Nov 11 05:53 N 3 10 Partly Cloudy SCT001 35 35     100% 32   30.44 30.46      
Nov 11 05:41 NNE 5 3 Fog/Mist BKN001 35 35     100% 31   30.44        
Nov 11 05:36 N 5 1 Fog/Mist VV001 35 35     100% 31   30.44        
Nov 11 05:33 NNE 3 0.5 Fog VV001 35 35     100% 32   30.44        
Nov 11 04:53 Calm 0.25 Fog VV001 36 36     100%     30.43 30.45      
Nov 11 04:07 NNW 3 0.25 Fog VV001 36 35     96% 33   30.43        
Nov 11 03:53 N 3 0.25 Fog VV001 35 34     96% 32   30.43 30.44      
Nov 11 03:42 Calm 0.25 Fog VV001 34 34     100%     30.43        
Nov 11 03:27 Calm 0.5 Fog VV001 35 35     100%     30.43        
Nov 11 03:07 Calm 0.25 Fog VV001 35 35     100%     30.43        
Nov 11 02:53 Calm 0.75 Fog/Mist BKN001 37 36     96%     30.44 30.45      
Nov 11 02:40 Calm 1.75 Fog/Mist BKN001 37 35     92%     30.44        
Nov 11 02:37 Calm 4 Fog/Mist SCT001 37 35     92%     30.44        
Nov 11 02:12 Calm 10 Partly Cloudy SCT013 35 35     100%     30.44        
Nov 11 01:53 Calm 4 Fog/Mist BKN014 37 35     92%     30.44 30.46      
Nov 11 01:51 Calm 2 Fog/Mist BKN014 37 36     93%     30.44        
Nov 11 01:45 Calm 0.75 Fog/Mist BKN014 36 35     96%     30.44        
Nov 11 01:39 Calm 2.5 Fog/Mist BKN014 37 35     92%     30.44        
Nov 11 01:31 Calm 5 Fog/Mist BKN015 36 35     96%     30.45        
Nov 11 00:53 Calm 8 Clear CLR 38 36     92%     30.45 30.47      
Nov 11 00:14 Calm 5 Fog/Mist CLR 37 36     96%     30.46        
Nov 11 00:07 Calm 2.5 Fog/Mist CLR 36 36     100%     30.46        
Nov 10 23:56 Calm 3 Fog/Mist FEW013 38 37     97%     30.46        
Nov 10 23:53 Calm 1.75 Fog/Mist FEW013 38 37     97%     30.46 30.47      
Nov 10 23:45 Calm 1.75 Fog/Mist SCT013 39 38     96%     30.46        
Nov 10 22:53 Calm 5 Fog/Mist FEW013 39 37     93%     30.46 30.47      
Nov 10 22:00 Calm 10 Partly Cloudy SCT006 42 39     89%     30.44        
Nov 10 21:53 NNE 3 10 Mostly Cloudy BKN006 42 39     89% 40   30.44 30.45      
Nov 10 20:53 Calm 10 Mostly Cloudy BKN009 42 40     92%     30.44 30.45      
Nov 10 20:05 Calm 10 Mostly Cloudy BKN009 42 39     89%     30.43        
Nov 10 19:53 Calm 10 Mostly Clear FEW009 41 39     93%     30.43 30.44      
Nov 10 18:53 N 5 10 Clear CLR 43 40     89% 40   30.41 30.42      
Nov 10 18:36 NW 3 10 Partly Cloudy SCT015 43 40     89% 41   30.41        
Nov 10 17:53 NW 3 10 Cloudy OVC012 43 40     89% 41   30.42 30.43      
Nov 10 17:37 Calm 10 Mostly Cloudy BKN012 42 40     92%     30.41        
Nov 10 16:53 NNW 5 10 Mostly Clear FEW008 43 40     89% 40   30.4 30.41      
Nov 10 15:53 5 10 Partly Cloudy SCT013 46 39     76% 44   30.4 30.41      
Nov 10 14:53 NNW 9 10 Partly Cloudy SCT006 47 41     80% 43   30.4 30.41      
Nov 10 14:19 NNW 7 10 Partly Cloudy SCT006 46 42     86% 42   30.41        
Nov 10 13:53 NNW 7 10 Cloudy BKN006 OVC011 45 41     86% 41   30.42 30.42      
Nov 10 12:53 NW 8 10 Mostly Cloudy BKN006 44 41     89% 40   30.41 30.42      
Nov 10 11:53 N 7 10 Mostly Cloudy BKN005 BKN010 44 41     89% 40   30.42 30.42      
Nov 10 11:09 NW 9 10 Cloudy OVC005 43 40     89% 38   30.41        
Nov 10 10:53 6 10 Mostly Cloudy BKN004 43 40     89% 39   30.41 30.42      
Nov 10 10:45 NNW 7 10 Mostly Cloudy BKN006 43 40     89% 39   30.41        
Nov 10 09:53 N 6 10 Partly Cloudy SCT002 43 40     89% 39   30.4 30.42      
Nov 10 09:38 NNE 6 1.5 Fog/Mist SCT002 43 40     89% 39   30.4        
Nov 10 09:27 NNE 5 0.75 Fog/Mist BKN002 42 40     92% 39   30.4        
Nov 10 09:15 NNE 5 4 Fog/Mist BKN003 42 40     92% 39   30.4        
Nov 10 09:00 NNW 5 6 Fog/Mist FEW003 42 40     92% 39   30.4        
Nov 10 08:53 N 6 10 Mostly Cloudy BKN003 43 40     89% 39   30.4 30.41      
Nov 10 08:29 N 5 10 Partly Cloudy FEW002 SCT009 43 41     93% 40   30.39        
Nov 10 07:53 NNW 3 7 Mostly Cloudy BKN006 BKN046 42 40     92% 40   30.39 30.4      
Nov 10 07:39 NNW 3 4 Fog/Mist BKN006 BKN046 41 40     96% 39   30.38        
Nov 10 07:31 Calm 2.5 Fog/Mist BKN006 BKN046 40 39     97%     30.37        
Nov 10 07:06 Calm 5 Fog/Mist SCT003 41 40     96%     30.36        
Nov 10 06:53 ENE 5 2 Fog/Mist OVC003 42 41     96% 39   30.36 30.37      
Nov 10 06:41 Calm 4 Fog/Mist OVC002 41 41     100%     30.35        
Nov 10 06:31 Calm 2.5 Fog/Mist OVC003 41 40     96%     30.35        
Nov 10 06:09 Calm 1.5 Fog/Mist OVC004 41 41     100%     30.34        
Nov 10 05:53 E 5 2.5 Fog/Mist OVC004 41 40     96% 38   30.35 30.36      
Nov 10 05:19 E 6 3 Fog/Mist OVC002 41 40     96% 37   30.34        
Nov 10 05:11 E 5 2.5 Fog/Mist OVC002 41 40     96% 38   30.34        
Nov 10 04:53 Calm 1.75 Fog/Mist OVC003 41 40     96%     30.34 30.35      
Nov 10 04:50 Calm 2 Fog/Mist OVC003 41 39     93%     30.34        
Nov 10 03:53 Calm 7 Cloudy BKN004 OVC027 41 40     96%     30.33 30.34     0
Nov 10 03:23 E 5 9 Cloudy BKN004 BKN009 OVC034 42 40     92% 39   30.33        
Nov 10 02:53 Calm 10 Cloudy FEW004 BKN018 OVC025 42 42     100%     30.33 30.35 0    
Nov 10 02:17 SSE 5 10 Cloudy FEW004 BKN025 OVC032 42 41     96% 39   30.33   0    
Nov 10 01:53 S 3 7 Light Rain BKN028 OVC033 42 41     96% 40   30.33 30.35 0    
Nov 10 01:50 SSE 3 7 Light Rain BKN028 OVC035 43 41     93% 41   30.33   0    
Nov 10 01:43 S 3 8 Light Rain BKN030 OVC035 42 41     96% 40   30.33   0    
Nov 10 00:53 SE 3 10 Cloudy BKN023 BKN028 OVC032 41 40     96% 39   30.32 30.34   0  
Nov 09 23:53 SE 3 10 Cloudy BKN021 OVC031 41 40     96% 39   30.32 30.33      
Nov 09 22:53 ESE 6 10 Cloudy FEW023 BKN029 OVC037 41 39     93% 37   30.32 30.33 0    
Nov 09 22:37 ESE 6 10 Light Rain FEW002 BKN024 OVC055 41 39     93% 37   30.32   0    
Nov 09 22:06 Calm 7 Cloudy FEW002 BKN041 OVC048 41 40     96%     30.32        
Nov 09 21:53 SE 5 8 Cloudy FEW002 BKN020 OVC049 41 39     93% 38   30.32 30.33     0
Nov 09 21:39 3 9 Cloudy BKN021 OVC045 41 40     96% 39   30.32        
Nov 09 20:53 Calm 10 Cloudy OVC044 42 39     89%     30.31 30.32      
Nov 09 19:53 S 3 10 Cloudy SCT029 OVC046 41 39     93% 39   30.31 30.32 0    
Nov 09 18:53 Calm 10 Light Rain BKN039 OVC046 42 39     89%     30.3 30.31 0 0  
Nov 09 17:53 Calm 10 Cloudy OVC042 41 39     93%     30.29 30.3      
Nov 09 16:53 SSE 3 10 Cloudy OVC030 41 38     89% 39   30.29 30.3      
Nov 09 16:31 SSE 5 10 Cloudy OVC020 41 38     89% 38   30.29        
Nov 09 16:24 SSE 3 10 Cloudy SCT021 OVC039 41 38     89% 39   30.29        
Nov 09 15:53 Calm 10 Cloudy OVC020 41 37     86%     30.29 30.3     0
Nov 09 14:53 Calm 10 Cloudy OVC022 42 37     82%     30.28 30.29      
Nov 09 14:00 ESE 3 10 Cloudy OVC025 41 37     86% 39   30.28        
Nov 09 13:53 SE 5 10 Cloudy SCT009 BKN038 OVC075 41 37     86% 38   30.28 30.29 0    
Nov 09 12:53 SSW 3 10 Light Rain SCT009 BKN038 OVC075 40 38     93% 38   30.29 30.3 0 0  
Nov 09 11:53 3 10 Light Rain BKN038 OVC075 41 37     86% 39   30.28 30.29 0    
Nov 09 10:53 ENE 3 10 Cloudy OVC050 41 37     86% 39   30.29 30.3 0    
Nov 09 09:53 N 6 10 Cloudy FEW005 OVC070 39 35     86% 35   30.29 30.3 0   0
Nov 09 08:53 WNW 3 10 Cloudy FEW003 OVC085 40 38     93% 38   30.29 30.31      
Nov 09 07:53 NW 6 10 Cloudy SCT003 OVC080 39 37     93% 35   30.31 30.32      
Nov 09 06:53 SE 3 10 Cloudy OVC085 39 35     86% 37   30.29 30.31      
Nov 09 05:53 Calm 10 Mostly Cloudy BKN090 39 36     89%     30.31 30.32      
Nov 09 04:53 Calm 10 Clear CLR 38 36     92%     30.33 30.35      
Nov 09 03:53 E 3 10 Clear CLR 37 35     92% 35   30.36 30.37      
Nov 09 02:53 Calm 10 Clear CLR 38 35     89%     30.39 30.4      
Nov 09 01:53 Calm 10 Clear CLR 37 36     96%     30.42 30.43      
Nov 09 00:53 E 5 10 Clear CLR 38 35     89% 34   30.42 30.43      
Nov 08 23:53 Calm 10 Clear CLR 39 36     89%     30.44 30.45      
Nov 08 22:53 ENE 3 10 Clear CLR 38 34     85% 36   30.47 30.48      
Nov 08 21:53 Calm 10 Clear CLR 37 34     89%     30.48 30.49      
Nov 08 20:53 N 3 10 Clear CLR 38 34     85% 36   30.49 30.5      
Nov 08 19:53 N 3 10 Clear CLR 40 36     86% 38   30.5 30.52      
Nov 08 18:53 N 5 10 Clear CLR 42 37     82% 39   30.51 30.52      
Nov 08 17:53 Calm 10 Clear CLR 41 36     82%     30.52 30.53      
Nov 08 16:53 Calm 10 Clear CLR 42 34     73%     30.53 30.54      
Nov 08 15:53 NW 3 10 Clear CLR 45 32     60% 44   30.53 30.55      
Nov 08 14:53 NW 3 10 Clear CLR 47 33     58% 46   30.53 30.54      
Nov 08 13:53 NW 6 10 Clear CLR 47 33     58% 44   30.54 30.55      
Nov 08 12:53 Calm 10 Clear CLR 47 33     58%     30.55 30.56      
Nov 08 11:53 Calm 10 Clear CLR 46 34     63%     30.57 30.58      
Nov 08 10:53 Calm 10 Clear CLR 44 34     67%     30.58 30.59      
Nov 08 09:53 Calm 10 Clear CLR 42 35     76%     30.57 30.59      
Nov 08 08:53 Calm 10 Clear CLR 39 35     86%     30.57 30.58      
Nov 08 07:53 E 3 10 Clear CLR 37 33     85% 35   30.55 30.57      
Nov 08 06:53 ENE 3 10 Clear CLR 37 34     89% 35   30.55 30.56      
Nov 08 05:53 Calm 10 Clear CLR 35 34     96%     30.55 30.56      
Nov 08 04:53 Calm 10 Clear CLR 34 33     96%     30.55 30.56      
Nov 08 03:53 Calm 10 Clear CLR 37 35     92%     30.54 30.56      
Nov 08 02:53 E 3 10 Clear CLR 37 35     92% 35   30.54 30.55      
Nov 08 01:53 Calm 10 Clear CLR 38 36     92%     30.54 30.55      
Nov 08 00:53 Calm 10 Clear CLR 39 37     93%     30.53 30.54      
Nov 07 23:53 Calm 10 Clear CLR 39 37     93%     30.52 30.53      
Nov 07 22:53 Calm 10 Mostly Clear FEW002 39 37     93%     30.51 30.53      
Nov 07 22:40 N 3 10 Partly Cloudy SCT003 39 37     93% 37   30.51        
Nov 07 21:53 Calm 10 Clear CLR 40 38     93%     30.5 30.51      
Nov 07 20:53 NNW 3 10 Clear CLR 41 38     89% 39   30.48 30.49      
Nov 07 19:53 N 5 10 Clear CLR 43 39     86% 40   30.47 30.48      
Nov 07 18:53 NNW 3 10 Clear CLR 43 38     82% 41   30.46 30.47      
Nov 07 17:53 NNW 3 10 Clear CLR 44 38     79% 43   30.46 30.47      
Nov 07 16:53 NNW 6 10 Clear CLR 46 36     68% 43   30.45 30.46      
Nov 07 15:53 6 10 Clear CLR 47 37     68% 44   30.45 30.46      
Nov 07 14:53 NNW 5 10 Clear CLR 49 40     71% 47   30.44 30.45      
Nov 07 13:53 NNW 3 10 Clear CLR 49 39     69% 48   30.44 30.44      
Nov 07 12:53 NNW 5 10 Partly Cloudy SCT017 48 40     73% 46   30.44 30.44      
Nov 07 11:53 6 10 Partly Cloudy SCT009 SCT017 48 42     80% 45   30.43 30.43      
Nov 07 11:50 N 6 10 Partly Cloudy SCT009 SCT017 46 41     81% 43   30.43        
Nov 07 10:53 NW 5 10 Cloudy BKN004 OVC014 45 42     90% 43   30.42 30.43      
Nov 07 10:39 NW 6 10 Cloudy BKN003 OVC014 45 42     90% 42   30.42        
Nov 07 09:53 NNW 5 10 Mostly Cloudy BKN004 BKN027 44 42     93% 41   30.41 30.42      
Nov 07 09:13 WNW 6 10 Mostly Cloudy BKN004 BKN028 45 43     93% 42   30.39        
May 14 07:53 SE 3 10 Clear CLR 65 53     65%     29.97 29.96      
Notice The following observation data may not be complete
May 14 05:53 ESE 3 10 Clear CLR   51      %     29.96 29.95      
May 14 02:53 E 8 10 Clear CLR 63 52     67%     29.94 29.93      
May 13 04:53 NNW 7 10 Clear CLR 55 50     83%     29.97 29.97      
May 12 08:17 NNW 5 1.5 Fog/Mist SCT001 51 50     96%     30.19        
May 12 02:53 NNW 5 10 Clear CLR 50 48     93% 48   30.2 30.19      
May 12 01:53 NNW 5 10 Clear CLR 50 47     89% 48   30.2 30.2      
May 11 18:53 NW 6 10 Clear CLR 63 47     56%     30.21 30.21      
Jun 11 21:53 5 10 Clear CLR 56 49     77%     30 30      
Jun 11 20:53 NW 5 10 Clear   58 48     70%     30 29.99      
Jun 11 19:53 NW 6 10 Clear   63 45     52%     30 29.99      
Jun 11 11:53 WSW 7 10 Clear CLR 59 51     75%     30.05 30.05      
Jun 10 23:53 N 6 10 Clear   54 48     80%     29.95 29.95      
Jun 10 16:53 NW 7 10 Clear CLR 61 43     52%     29.87 29.87      
Notice The following observation data may not be complete
Jun 10 02:39   10 Cloudy BKN015 OVC080          %              
Jun 10 01:48   10 Cloudy FEW016 BKN070 OVC085 52 46     82%     29.87        
Jun 09 11:10 Calm 10 Cloudy FEW025 BKN031 OVC080 55 46     72%     29.89        
Jun 09 06:53 ESE 9 10 Cloudy OVC055 50 46     86% 46   29.91 29.91      
Jun 09 02:53 SSE 8 10 Mostly Cloudy BKN070 51 45     79%     29.95 29.94      
Jun 08 07:29 SSE 8 8 Light Rain SCT004 BKN009 BKN045 56 54     93%     29.64   0    
Jun 06 05:53 WNW 3 10 Clear CLR 52 48     86%     30.03 30.02      
Jun 05 22:53 5 10 Clear CLR 53 47     80%     30.08 30.08      
Jun 05 18:53 NW 7 10 Clear CLR 65 47     52%     30.07 30.07